Location: *
(17.3280°S, 114.7300°W)
Time: 15:13:56
(UTC+00:00)

Hubble Space Telescope - Pass Details

Date: 30 October 2020
Orbit: 536 x 540 km, 28.5° (Epoch: 29 November)

Event Time Altitude Azimuth Distance (km) Brightness Sun altitude
Exits shadow 11:32:51 25° 218° (SW) 1,121 2.2 -20.8°
Maximum altitude 11:34:52 44° 160° (SSE) 756 1.8 -20.3°
Drops below altitude 10° 11:38:51 10° 87° (E) 1,792 4.4 -19.4°
Sets 11:41:11 0° 81° (E) 2,680 5.3 -18.9°
